Regional Weather Roundup
Issued by NWS

Home | Current Version | Previous Version | Text Only | Print | Product List | Glossary On
Versions: 1 2 3 4 5 6 7 8 9 10 11 12 13 14 15 16 17 18 19 20 21 22 23 24 25 26 27 28 29 30 31 32 33 34 35 36 37 38 39 40 41 42 43 44 45 46 47 48 49 50
000
ASUS43 KMKX 290159
RWRWI

WISCONSIN REGIONAL WEATHER ROUNDUP
NATIONAL WEATHER SERVICE MILWAUKEE/SULLIVAN WI
900 PM CDT SAT MAR 28 2015

NOTE: "FAIR" INDICATES FEW OR NO CLOUDS BELOW 12,000 FEET WITH NO
SIGNIFICANT WEATHER AND/OR OBSTRUCTIONS TO VISIBILITY.

WIZ001-002-006>008-014>016-023>028-290300-
NORTHWEST WISCONSIN

CITY           SKY/WX    TMP DP  RH WIND       PRES   REMARKS
SUPERIOR ARPT  PTCLDY    38  16  41 SW13      29.99F WCI  30
ASHLAND        PTCLDY    37   9  31 S9        30.02S WCI  30
HAYWARD        PTCLDY    35  12  38 S16       30.04F WCI  25
SIREN          CLEAR     34  16  47 S10       30.03F WCI  26
CUMBERLAND     CLEAR     32  18  55 S9        30.06S WCI  24
RICE LAKE      CLEAR     32  14  48 SE8       30.09S WCI  25
CHETEK         CLEAR     32  13  45 S6        30.09S WCI  27
LADYSMITH      CLEAR     33  11  39 S8        30.10S WCI  27
EAU CLAIRE     NOT AVBL
MENOMONIE      CLEAR     32  17  53 SE8       30.10F WCI  25
NEW RICHMOND   CLEAR     33  20  57 S9        30.07R WCI  26
OSCEOLA        CLEAR     35  21  57 SE9       30.08S WCI  27
$$

WIZ003>005-009-010-017-018-290300-
NORTH CENTRAL WISCONSIN

CITY           SKY/WX    TMP DP  RH WIND       PRES   REMARKS
MANITOWISH WTR MOCLDY    31  13  46 S6        30.04S WCI  26
ARBOR VITAE    PTCLDY    32  13  45 S8        30.05F WCI  25
WOODRUFF       PTCLDY    32  13  45 S8        30.05F WCI  25
RHINELANDER    CLEAR     32  10  40 SW8       30.08S WCI  25
EAGLE RIVER    PTCLDY    31   8  38 S5        30.06S WCI  26
LAND O LAKES   PTCLDY    32  10  40 S5        30.05F WCI  27
PHILLIPS       CLEAR     33  11  40 SW5       30.06S WCI  29
TOMAHAWK       CLEAR     30  12  48 CALM      30.09S
MEDFORD        FAIR      32  18  56 S7        30.10R WCI  25
MERRILL        CLEAR     33  12  41 SW6       30.11S WCI  28
$$

WIZ029-030-035-036-043>047-290300-
CENTRAL WISCONSIN

CITY           SKY/WX    TMP DP  RH WIND       PRES   REMARKS
WAUSAU         CLEAR     34  13  41 SW9       30.11S WCI  27
MOSINEE        NOT AVBL
MARSHFIELD     CLEAR     32  12  43 S10       30.13S WCI  24
STEVENS POINT  CLEAR     32  11  41 SW8       30.16R WCI  25
WAUPACA        CLEAR     33  13  43 S7        30.18S WCI  27
WAUTOMA        NOT AVBL
WISC RAPIDS    CLEAR     32  12  43 S6        30.17S WCI  26
CAMP DOUGLAS   NOT AVBL
$$

WIZ011>013-019>022-031-037>040-048>050-290300-
NORTHEAST WISCONSIN

CITY           SKY/WX    TMP DP  RH WIND       PRES   REMARKS
ANTIGO         CLEAR     28  16  61 S7        30.11S WCI  20
SHAWANO        PTCLDY    35  12  39 S3        30.16F
OCONTO         CLEAR     31  23  73 S8        30.19R WCI  23
STURGEON BAY   CLEAR     28  18  64 S15       30.21F WCI  17
GREEN BAY      CLEAR     30  21  69 S9        30.20R WCI  22
MANITOWOC      NOT AVBL
APPLETON       PTCLDY    32  12  43 SW12      30.19S WCI  23
CLINTONVILLE   PTCLDY    32  14  47 S8        30.17R WCI  25
OSHKOSH        CLEAR     31  15  52 S9        30.20S WCI  23
$$

WIZ032>034-041-042-053>061-290300-
SOUTHWEST WISCONSIN

CITY           SKY/WX    TMP DP  RH WIND       PRES   REMARKS
LA CROSSE      CLEAR     35  16  45 SE9       30.15S WCI  28
SPARTA         CLEAR     29  14  53 CALM      30.17F
VIROQUA        CLEAR     32  17  54 SE8       30.15F WCI  25
BOSCOBEL       CLEAR     36  13  38 S6        30.20S WCI  31
PRAIRIE DU CHI CLEAR     37  12  36 SE5       30.18F WCI  33
PLATTEVILLE    CLEAR     32  17  54 SE9       30.20F WCI  24
$$

WIZ056-057-062-063-064-067-068-290300-
SOUTH CENTRAL WISCONSIN

CITY           SKY/WX    TMP DP  RH WIND       PRES   REMARKS
REEDSBURG      CLEAR     32  14  48 S3        30.19S
BARABOO/DELLS  CLEAR     30  13  48 S3        30.19S
LONE ROCK      NOT AVBL
MINERAL POINT  CLEAR     32  14  47 S6        30.20S WCI  26
MADISON        PTCLDY    34  13  41 S7        30.21F WCI  28
MIDDLETON      CLEAR     34  14  43 S6        30.22S WCI  29
WATERTOWN      CLEAR     26  17  68 S3        30.23R
MONROE         CLEAR     32  18  55 S7        30.22R WCI  26
JANESVILLE     CLEAR     34  12  40 S7        30.24R WCI  28
$$

WIZ051-052-058>065-066-070>072-290300-
SOUTHEAST WISCONSIN

CITY           SKY/WX    TMP DP  RH WIND       PRES   REMARKS
MILWAUKEE      CLEAR     27  13  55 S8        30.27R WCI  19
WAUKESHA       CLEAR     27  12  54 S10       30.26R WCI  17
MILWAUKEE/TIMM CLEAR     32  12  43 S9        30.27R WCI  24
RACINE         CLEAR     28  14  55 S9        30.29R WCI  19
BURLINGTON     CLEAR     26  12  55 S5        30.26S WCI  20
KENOSHA        CLEAR     26  14  60 S7        30.28R WCI  18
FOND DU LAC    CLEAR     30  15  53 S7        30.21S WCI  23
SHEBOYGAN      CLEAR     26  18  71 S10       30.24S WCI  16
WEST BEND      CLEAR     27  14  59 S3        30.24R
JUNEAU         CLEAR     30  14  52 S3        30.23S
$$

LSZ147-162-290300-
LAKE SUPERIOR

STATION/POSITION TIME  TEMP    WIND        PRES    WAVE
                       AIR SEA DIR/SP/G            HT/PER
                 (UTC) (F)     (DEG/KT/KT) (MB)    (FT/S)
DEVILS ISLAND    0100   36     170/  9/ 12 1016.7F
PORT WING        0100   39     190/  6/  9 1016.3F
SAXON HARBOR     0100   40     200/  5/ 10 1016.6
$$

LMZ867-665-643>646-290300-
LAKE MICHIGAN

STATION/POSITION TIME  TEMP    WIND        PRES    WAVE
                       AIR SEA DIR/SP/G            HT/PER
                 (UTC) (F)     (DEG/KT/KT) (MB)    (FT/S)
NORTHPORT PIER   0100   29     180/  7/ 13 1022.4
KEWAUNEE LAKESHO 0100   30     200/ 13/ 17 1022.5F
SHEBOYGAN LAKESH 0100   30     190/ 20/ 22 1025.1F
PORT WASHINGTON  0100   31     180/ 14/ 17 1025.1S
MILWAUKEE LAKESH 0100   30     180/  9/ 11   N/A
KENOSHA   LAKESH 0100   29     170/ 13/ 15 1025.1F
$$

TC  - TEMPERATURE IN CELSIUS
VSB - VISIBILITY IN STATUTE MILES
WCI - WIND CHILL INDEX
HX  - HEAT INDEX




USA.gov is the U.S. government's official web portal to all federal, state and local government web resources and services.